Regional Weather Roundup
Issued by NWS Kansas City/Pleasant Hill, MO

Home | Current Version | Previous Version | Graphics & Text | Print | Product List | Glossary Off
Versions: 1 2 3 4 5 6 7 8 9 10 11 12 13 14 15 16 17 18 19 20 21 22 23 24 25 26 27 28 29 30 31 32 33 34 35 36 37 38 39 40 41 42 43 44 45 46 47 48 49 50

000
ASUS43 KEAX 141110
RWREAX

WEATHER ROUNDUP FOR EASTERN KANSAS AND NORTHWEST MISSOURI
NATIONAL WEATHER SERVICE KANSAS CITY/PLEASANT HILL MO
500 AM CST SUN FEB 14 2016

KSZ040-057-103>105-MOZ028-029-037-043-141200-
...KANSAS CITY METROPOLITAN AREA...

CITY           SKY/WX    TMP DP  RH WIND       PRES   REMARKS
K.C. INTL      CLOUDY    25   7  46 SE12      30.04R WCI  14
K.C. DOWNTOWN  CLOUDY    27   6  41 SE7       30.06R WCI  19
LEES SUMMIT    MIX PCPN  26  10  50 SE9       30.04F WCI  17
OLATHE - IXD   CLOUDY    25  15  66 SE12      30.03S WCI  14
OLATHE - OJC   MIX PCPN  25  15  66 SE9       30.03S WCI  15
LAWRENCE       CLOUDY    26   9  48 SE6       30.05R WCI  19

$$

MOZ001>008-011>017-020>025-030>033-038>040-044>046-053-054-141200-
...NORTHERN AND CENTRAL MISSOURI...

CITY           SKY/WX    TMP DP  RH WIND       PRES   REMARKS
ST. JOSEPH     CLOUDY    24   6  46 SE7       30.06F WCI  16
MOSBY          CLOUDY    27   7  43 E7        30.06S WCI  19
WARRENSBURG    MIX PCPN  28  12  50 SE13      30.05F WCI  18
WHITEMAN AFB   FRZ RAIN  27  14  59 VRB7      30.05F WCI  19
CLINTON        DRIZZLE   30  18  59 SE13      30.04F WCI  20
SEDALIA        CLOUDY    28   3  34 SE14      30.07F WCI  17
WARSAW         NOT AVBL
CHILLICOTHE      N/A     24   6  46 SE9       30.10F WCI  14
KIRKSVILLE     CLOUDY    20   8  60 SE17G24   30.11F WCI   5

$$

MOZ041-047>049-056>058-063>065-088>090-097-141200-
...EASTERN AND SOUTHERN MISSOURI...

CITY           SKY/WX    TMP DP  RH WIND       PRES   REMARKS
ST. LOUIS INTL CLOUDY    24   7  48 SE18      30.26F WCI  10
SPIRIT OF STL  CLOUDY    23   8  52 SE10      30.26F WCI  12
COLUMBIA       CLOUDY    23   6  48 SE16G22   30.13F WCI  10
JEFFERSON CITY CLOUDY    25   7  46 SE14      30.17F WCI  13
ROLLA          CLOUDY    24   7  48 SE16      30.13F WCI  11
OSAGE BEACH    CLOUDY    25  12  58 SE9       30.11F WCI  15
SPRINGFIELD    CLOUDY    27   8  44 SE21G28   30.02F WCI  13
JOPLIN         CLOUDY    35  13  40 SE14      29.99F WCI  26
WEST PLAINS    CLOUDY    23  15  71 SE12      30.16F WCI  12

$$

IAZ060-094-KSZ022-034>040-054-083-096-NEZ052-066-093-141200-
...KANSAS...SOUTHEAST NEBRASKA AND IOWA...

CITY           SKY/WX    TMP DP  RH WIND       PRES   REMARKS
TOPEKA         MOCLDY    25   6  44 SE5       30.05S WCI  19
MANHATTAN      CLOUDY    17   9  70 CALM      30.04F
EMPORIA        CLOUDY    25  13  60 CALM      30.00S
CHANUTE        CLOUDY    34  16  47 N8        30.04R WCI  27
WICHITA        MOCLDY    29  12  49 N7        29.99F WCI  22
OMAHA          CLOUDY    21   8  57 S21       29.96F WCI   5
LINCOLN        CLOUDY    21   9  59 S15G23    29.95F WCI   8
FALLS CITY     CLOUDY    24   6  46 S13       30.01F WCI  12
LAMONI         CLOUDY    20   6  55 SE12      30.05F WCI   8
DES MOINES     FLURRIES  17   9  70 SE14      30.08F WCI   3

$$




USA.gov is the U.S. government's official web portal to all federal, state and local government web resources and services.